Terminal Aerodrome Forecast
Issued by NWS Salt Lake City, UT

Home | Current Version | Previous Version | Text Only | Print | Product List | Glossary On
Versions: 1 2 3 4 5 6 7 8 9 10 11 12 13 14 15 16 17 18 19 20 21 22 23 24 25 26 27 28 29 30 31 32 33 34 35 36 37
000
FTUS45 KSLC 212333
TAFCDC
TAF
KCDC 212333Z 2200/2224 30006KT P6SM VCSH SCT150
      TEMPO 2200/2201 VRB15G25KT 6SM TSRA BKN070CB OVC110
     FM220300 18006KT P6SM BKN150
     FM221800 21010G20KT P6SM SCT150=

USA.gov is the U.S. government's official web portal to all federal, state and local government web resources and services.